| time (UTC) | temp F | wind direction | speed MPH | gust MPH | rain 1hr in | rain 24hr in | rain mn in | humidity % | barometer mb |
| 20260505014331 | 85 | 118 | 8.0 | 14.0 | 0.00 | 0.00 | 0.00 | 75 | 1007.1 |
| 20260505013829 | 85 | 118 | 7.0 | 13.0 | 0.00 | 0.00 | 0.00 | 75 | 1007.1 |
| 20260505013328 | 85 | 118 | 7.0 | 14.0 | 0.00 | 0.00 | 0.00 | 75 | 1007.1 |
| 20260505012827 | 85 | 128 | 7.0 | 14.0 | 0.00 | 0.00 | 0.00 | 75 | 1007.1 |
| 20260505012325 | 85 | 135 | 6.0 | 15.0 | 0.00 | 0.00 | 0.00 | 75 | 1007.1 |
| 20260505011823 | 85 | 128 | 9.0 | 15.0 | 0.00 | 0.00 | 0.00 | 75 | 1007.1 |
| 20260505011322 | 85 | 115 | 7.0 | 15.0 | 0.00 | 0.00 | 0.00 | 75 | 1007.1 |
| 20260505010820 | 85 | 125 | 6.0 | 16.0 | 0.00 | 0.00 | 0.00 | 76 | 1007.1 |
| 20260505010319 | 85 | 111 | 5.0 | 16.0 | 0.00 | 0.00 | 0.00 | 76 | 1007.1 |
| 20260505005817 | 85 | 115 | 5.0 | 16.0 | 0.00 | 0.00 | 0.00 | 76 | 1007.1 |
| 20260505005316 | 85 | 130 | 9.0 | 14.0 | 0.00 | 0.00 | 0.00 | 76 | 1007.1 |
| 20260505004814 | 85 | 126 | 5.0 | 16.0 | 0.00 | 0.00 | 0.00 | 77 | 1007.1 |
| 20260505004313 | 85 | 107 | 7.0 | 16.0 | 0.00 | 0.00 | 0.00 | 77 | 1007.1 |
| 20260505003812 | 85 | 116 | 6.0 | 16.0 | 0.00 | 0.00 | 0.00 | 77 | 1007.1 |
| 20260505003310 | 85 | 129 | 8.0 | 16.0 | 0.00 | 0.00 | 0.00 | 77 | 1007.1 |
| 20260505002738 | 85 | 117 | 6.0 | 15.0 | 0.00 | 0.00 | 0.00 | 77 | 1007.1 |
| 20260505002237 | 85 | 117 | 8.0 | 15.0 | 0.00 | 0.00 | 0.00 | 77 | 1007.1 |
| 20260505001704 | 85 | 132 | 8.0 | 15.0 | 0.00 | 0.00 | 0.00 | 76 | 1007.1 |
| 20260505001203 | 86 | 116 | 4.0 | 13.0 | 0.00 | 0.00 | 0.00 | 75 | 1007.1 |
| 20260505000702 | 86 | 124 | 7.0 | 13.0 | 0.00 | 0.00 | 0.00 | 74 | 1007.1 |
| 20260505000129 | 87 | 126 | 6.0 | 11.0 | 0.00 | 0.00 | 0.00 | 73 | 1007.1 |
| 20260504235627 | 87 | 118 | 6.0 | 11.0 | 0.00 | 0.00 | 0.00 | 73 | 1007.1 |
| 20260504235055 | 87 | 106 | 2.0 | 12.0 | 0.00 | 0.00 | 0.00 | 74 | 1007.1 |
| 20260504234554 | 87 | 122 | 5.0 | 12.0 | 0.00 | 0.00 | 0.00 | 73 | 1006.8 |
| 20260504234053 | 88 | 120 | 5.0 | 12.0 | 0.00 | 0.00 | 0.00 | 73 | 1006.8 |
| 20260504233520 | 88 | 107 | 5.0 | 12.0 | 0.00 | 0.00 | 0.00 | 72 | 1006.8 |
| 20260504233019 | 89 | 121 | 7.0 | 12.0 | 0.00 | 0.00 | 0.00 | 71 | 1006.8 |
| 20260504232518 | 89 | 103 | 2.0 | 6.0 | 0.00 | 0.00 | 0.00 | 70 | 1006.4 |
| 20260504232018 | 90 | 110 | 2.0 | 6.0 | 0.00 | 0.00 | 0.00 | 70 | 1006.4 |
| 20260504231345 | 90 | 105 | 3.0 | 8.0 | 0.00 | 0.00 | 0.00 | 69 | 1006.4 |
| 20260504230844 | 90 | 104 | 2.0 | 8.0 | 0.00 | 0.00 | 0.00 | 69 | 1006.4 |
| 20260504230343 | 90 | 107 | 3.0 | 8.0 | 0.00 | 0.00 | 0.00 | 69 | 1009.8 |
| 20260504225809 | 90 | 109 | 2.0 | 8.0 | 0.00 | 0.00 | 0.00 | 69 | 1009.8 |
| 20260504225308 | 91 | 97 | 3.0 | 8.0 | 0.00 | 0.00 | 0.00 | 69 | 1009.8 |
| 20260504224807 | 91 | 80 | 1.0 | 3.0 | 0.00 | 0.00 | 0.00 | 69 | 1009.8 |
| 20260504224306 | 91 | 80 | 0.0 | 3.0 | 0.00 | 0.00 | 0.00 | 69 | 1009.8 |
| 20260504223631 | 92 | 80 | 0.0 | 3.0 | 0.00 | 0.00 | 0.00 | 69 | 1009.8 |
| 20260504223130 | 92 | 102 | 1.0 | 1.0 | 0.00 | 0.00 | 0.00 | 68 | 1009.8 |
| 20260504222628 | 92 | 54 | 1.0 | 1.0 | 0.00 | 0.00 | 0.00 | 68 | 1009.8 |
| 20260504222127 | 92 | 108 | 1.0 | 1.0 | 0.00 | 0.00 | 0.00 | 67 | 1009.8 |
| 20260504221625 | 92 | 99 | 0.0 | 1.0 | 0.00 | 0.00 | 0.00 | 66 | 1009.8 |
| 20260504221053 | 92 | 98 | 1.0 | 1.0 | 0.00 | 0.00 | 0.00 | 67 | 1009.8 |
| 20260504220521 | 92 | 105 | 0.0 | 1.0 | 0.00 | 0.00 | 0.00 | 67 | 1009.8 |
| 20260504220020 | 91 | 104 | 0.0 | 1.0 | 0.00 | 0.00 | 0.00 | 67 | 1009.8 |
| 20260504215447 | 91 | 104 | 1.0 | 1.0 | 0.00 | 0.00 | 0.00 | 67 | 1009.8 |
| 20260504214945 | 91 | 103 | 1.0 | 1.0 | 0.00 | 0.00 | 0.00 | 66 | 1009.8 |
| 20260504214444 | 91 | 98 | 0.0 | 1.0 | 0.00 | 0.00 | 0.00 | 64 | 1009.8 |
| 20260504213911 | 91 | 137 | 1.0 | 4.0 | 0.00 | 0.00 | 0.00 | 64 | 1009.8 |
| 20260504213410 | 91 | 127 | 0.0 | 4.0 | 0.00 | 0.00 | 0.00 | 63 | 1009.8 |
| 20260504212909 | 91 | 127 | 0.0 | 4.0 | 0.00 | 0.00 | 0.00 | 63 | 1009.8 |
| 20260504212408 | 91 | 127 | 2.0 | 4.0 | 0.00 | 0.00 | 0.00 | 65 | 1009.8 |
| 20260504211907 | 91 | 127 | 2.0 | 3.0 | 0.00 | 0.00 | 0.00 | 65 | 1009.8 |
| 20260504211406 | 91 | 125 | 1.0 | 2.0 | 0.00 | 0.00 | 0.00 | 64 | 1009.8 |
| 20260504210904 | 90 | 126 | 0.0 | 2.0 | 0.00 | 0.00 | 0.00 | 67 | 1009.8 |
| 20260504210402 | 91 | 120 | 1.0 | 1.0 | 0.00 | 0.00 | 0.00 | 66 | 1009.8 |
| 20260504205901 | 91 | 111 | 1.0 | 1.0 | 0.00 | 0.00 | 0.00 | 67 | 1009.8 |
| 20260504205328 | 91 | 110 | 1.0 | 1.0 | 0.00 | 0.01 | 0.00 | 66 | 1009.8 |
| 20260504204827 | 90 | 110 | 0.0 | 2.0 | 0.00 | 0.01 | 0.00 | 66 | 1009.8 |
| 20260504204254 | 90 | 110 | 1.0 | 2.0 | 0.00 | 0.01 | 0.00 | 66 | 1009.8 |
| 20260504203753 | 91 | 79 | 1.0 | 2.0 | 0.00 | 0.01 | 0.00 | 66 | 1009.8 |
| 20260504203251 | 91 | 70 | 0.0 | 2.0 | 0.00 | 0.01 | 0.00 | 65 | 1009.8 |
| 20260504202750 | 91 | 51 | 1.0 | 2.0 | 0.00 | 0.01 | 0.00 | 66 | 1009.8 |
| 20260504202249 | 90 | 104 | 1.0 | 3.0 | 0.00 | 0.01 | 0.00 | 65 | 1009.8 |
| 20260504201747 | 90 | 86 | 1.0 | 3.0 | 0.00 | 0.01 | 0.00 | 65 | 1009.8 |
| 20260504201246 | 90 | 37 | 0.0 | 3.0 | 0.00 | 0.01 | 0.00 | 68 | 1009.8 |
| 20260504200745 | 90 | 7 | 2.0 | 3.0 | 0.00 | 0.01 | 0.00 | 68 | 1009.8 |
| 20260504200244 | 90 | 91 | 1.0 | 3.0 | 0.00 | 0.01 | 0.00 | 68 | 1009.8 |
| 20260504195743 | 91 | 109 | 1.0 | 3.0 | 0.00 | 0.01 | 0.00 | 68 | 1009.8 |
| 20260504195241 | 91 | 115 | 1.0 | 4.0 | 0.00 | 0.01 | 0.00 | 67 | 1009.8 |
| 20260504194740 | 91 | 105 | 0.0 | 4.0 | 0.00 | 0.01 | 0.00 | 68 | 1009.8 |
| 20260504194238 | 91 | 110 | 1.0 | 4.0 | 0.00 | 0.01 | 0.00 | 68 | 1009.8 |
| 20260504193737 | 90 | 118 | 1.0 | 4.0 | 0.00 | 0.01 | 0.00 | 70 | 1009.8 |
| 20260504193235 | 89 | 120 | 2.0 | 4.0 | 0.00 | 0.01 | 0.00 | 71 | 1009.8 |
| 20260504192734 | 89 | 146 | 2.0 | 4.0 | 0.00 | 0.01 | 0.00 | 71 | 1009.8 |
| 20260504192233 | 89 | 157 | 3.0 | 4.0 | 0.00 | 0.01 | 0.00 | 71 | 1009.8 |
| 20260504191731 | 90 | 156 | 3.0 | 4.0 | 0.00 | 0.01 | 0.00 | 70 | 1009.8 |
| 20260504191230 | 90 | 117 | 2.0 | 4.0 | 0.00 | 0.01 | 0.00 | 71 | 1009.8 |
| 20260504190728 | 90 | 108 | 1.0 | 4.0 | 0.00 | 0.01 | 0.00 | 70 | 1009.8 |
| 20260504190226 | 90 | 124 | 2.0 | 4.0 | 0.00 | 0.01 | 0.00 | 70 | 1009.8 |
| 20260504185725 | 89 | 124 | 2.0 | 4.0 | 0.00 | 0.01 | 0.00 | 70 | 1009.8 |
| 20260504185224 | 89 | 107 | 2.0 | 4.0 | 0.00 | 0.01 | 0.00 | 71 | 1009.8 |
| 20260504184723 | 89 | 157 | 3.0 | 5.0 | 0.00 | 0.01 | 0.00 | 71 | 1009.8 |
| 20260504184222 | 89 | 170 | 3.0 | 5.0 | 0.00 | 0.01 | 0.00 | 70 | 1009.8 |
| 20260504183721 | 89 | 132 | 2.0 | 5.0 | 0.00 | 0.01 | 0.00 | 70 | 1009.8 |
| 20260504183219 | 89 | 120 | 2.0 | 5.0 | 0.00 | 0.01 | 0.00 | 71 | 1009.8 |
| 20260504182717 | 89 | 140 | 3.0 | 5.0 | 0.00 | 0.01 | 0.00 | 71 | 1009.8 |
| 20260504182215 | 89 | 167 | 3.0 | 5.0 | 0.00 | 0.01 | 0.00 | 71 | 1009.8 |
| 20260504181714 | 89 | 184 | 3.0 | 5.0 | 0.00 | 0.01 | 0.00 | 71 | 1009.8 |
| 20260504181141 | 89 | 181 | 3.0 | 5.0 | 0.00 | 0.01 | 0.00 | 71 | 1009.8 |
| 20260504180640 | 89 | 166 | 3.0 | 6.0 | 0.00 | 0.01 | 0.00 | 72 | 1009.8 |
| 20260504180138 | 89 | 167 | 3.0 | 6.0 | 0.00 | 0.01 | 0.00 | 73 | 1009.8 |
| 20260504175636 | 89 | 144 | 3.0 | 6.0 | 0.00 | 0.01 | 0.00 | 73 | 1009.8 |
| 20260504175104 | 88 | 174 | 3.0 | 6.0 | 0.00 | 0.01 | 0.00 | 73 | 1009.8 |
| 20260504174603 | 88 | 178 | 4.0 | 6.0 | 0.00 | 0.01 | 0.00 | 73 | 1009.8 |
| 20260504174102 | 88 | 134 | 3.0 | 6.0 | 0.00 | 0.01 | 0.00 | 73 | 1009.8 |
| 20260504173601 | 88 | 146 | 4.0 | 7.0 | 0.00 | 0.01 | 0.00 | 74 | 1009.8 |
| 20260504173100 | 88 | 126 | 3.0 | 7.0 | 0.00 | 0.01 | 0.00 | 74 | 1009.8 |
| 20260504172527 | 88 | 150 | 4.0 | 7.0 | 0.00 | 0.01 | 0.00 | 74 | 1009.8 |
| 20260504171954 | 88 | 146 | 4.0 | 7.0 | 0.00 | 0.01 | 0.00 | 75 | 1009.8 |
| 20260504171452 | 87 | 127 | 3.0 | 6.0 | 0.00 | 0.01 | 0.00 | 75 | 1009.8 |
| 20260504170952 | 87 | 171 | 5.0 | 6.0 | 0.00 | 0.01 | 0.00 | 76 | 1009.8 |
| 20260504170420 | 87 | 181 | 5.0 | 6.0 | 0.00 | 0.01 | 0.00 | 77 | 1009.8 |
| 20260504160303 | 87 | 153 | 3.0 | 6.0 | 0.00 | 0.01 | 0.00 | 77 | 1009.8 |
| 20260504150718 | 91 | 158 | 4.0 | 5.0 | 0.00 | 0.01 | 0.00 | 67 | 1009.8 |
| 20260504150216 | 91 | 115 | 2.0 | 5.0 | 0.00 | 0.01 | 0.00 | 66 | 1009.8 |
| 20260504141029 | 93 | 103 | 0.0 | 2.0 | 0.00 | 0.01 | 0.00 | 64 | 1009.8 |
| 20260504140528 | 92 | 105 | 1.0 | 2.0 | 0.00 | 0.01 | 0.00 | 65 | 1009.8 |
| 20260504130412 | 86 | 88 | 0.0 | 0.0 | 0.00 | 0.01 | 0.00 | 72 | 1009.8 |
| 20260504081905 | 83 | 96 | 4.0 | 11.0 | 0.00 | 0.01 | 0.01 | 76 | 956.3 |
| 20260504081403 | 83 | 103 | 6.0 | 11.0 | 0.00 | 0.01 | 0.01 | 75 | 956.3 |
| 20260504080903 | 83 | 114 | 6.0 | 14.0 | 0.00 | 0.01 | 0.01 | 76 | 956.3 |
| 20260504080401 | 83 | 114 | 5.0 | 14.0 | 0.00 | 0.01 | 0.01 | 76 | 956.3 |
| 20260504070217 | 81 | 89 | 3.0 | 8.0 | 0.00 | 0.01 | 0.01 | 80 | 956.3 |
| 20260504060132 | 83 | 53 | 0.0 | 3.0 | 0.00 | 0.01 | 0.01 | 79 | 1008.1 |
| 20260504050415 | 83 | 103 | 4.0 | 13.0 | 0.00 | 0.01 | 0.01 | 79 | 1008.1 |
| 20260504045913 | 83 | 116 | 5.0 | 14.0 | 0.00 | 0.01 | 0.01 | 79 | 1008.1 |
| 20260504045340 | 83 | 113 | 6.0 | 16.0 | 0.00 | 0.01 | 0.01 | 79 | 1008.1 |
| 20260504044840 | 83 | 112 | 7.0 | 16.0 | 0.00 | 0.01 | 0.01 | 79 | 1008.1 |
| 20260504044339 | 83 | 106 | 6.0 | 16.0 | 0.00 | 0.01 | 0.01 | 79 | 1008.1 |
| 20260504043837 | 83 | 109 | 5.0 | 16.0 | 0.00 | 0.01 | 0.01 | 79 | 1008.1 |
| 20260504043337 | 83 | 120 | 8.0 | 14.0 | 0.00 | 0.01 | 0.01 | 79 | 1008.1 |
| 20260504042835 | 83 | 113 | 6.0 | 16.0 | 0.00 | 0.01 | 0.01 | 80 | 1008.5 |
| 20260504042304 | 83 | 91 | 5.0 | 16.0 | 0.00 | 0.01 | 0.01 | 79 | 1008.5 |
| 20260504041802 | 83 | 120 | 5.0 | 16.0 | 0.00 | 0.01 | 0.01 | 79 | 1008.5 |
| 20260504041301 | 83 | 117 | 5.0 | 17.0 | 0.00 | 0.01 | 0.01 | 79 | 1008.5 |
| 20260504040729 | 83 | 119 | 5.0 | 17.0 | 0.00 | 0.01 | 0.01 | 79 | 1008.5 |
| 20260504040157 | 83 | 104 | 6.0 | 21.0 | 0.00 | 0.01 | 0.01 | 79 | 1008.5 |
| 20260504035655 | 83 | 116 | 8.0 | 21.0 | 0.00 | 0.01 | 0.01 | 79 | 1008.5 |
| 20260504035154 | 83 | 125 | 7.0 | 21.0 | 0.00 | 0.01 | 0.01 | 79 | 1008.5 |
| 20260504034622 | 84 | 134 | 9.0 | 21.0 | 0.00 | 0.01 | 0.01 | 78 | 1008.1 |
| 20260504034049 | 84 | 114 | 9.0 | 21.0 | 0.00 | 0.01 | 0.01 | 78 | 1008.8 |
| 20260504033547 | 83 | 128 | 10.0 | 21.0 | 0.00 | 0.01 | 0.01 | 78 | 1008.8 |
| 20260504033046 | 84 | 136 | 9.0 | 25.0 | 0.00 | 0.01 | 0.01 | 78 | 1008.8 |
| 20260504032544 | 84 | 135 | 9.0 | 25.0 | 0.00 | 0.01 | 0.01 | 78 | 1008.8 |
| 20260504032043 | 84 | 124 | 7.0 | 25.0 | 0.00 | 0.01 | 0.01 | 78 | 1008.8 |
| 20260504031542 | 83 | 142 | 14.0 | 25.0 | 0.00 | 0.01 | 0.01 | 78 | 1008.8 |
| 20260504031041 | 83 | 135 | 11.0 | 23.0 | 0.00 | 0.01 | 0.01 | 78 | 1008.8 |
| 20260504030540 | 83 | 148 | 10.0 | 21.0 | 0.00 | 0.01 | 0.01 | 78 | 1008.8 |
| 20260504030038 | 83 | 135 | 13.0 | 21.0 | 0.00 | 0.01 | 0.01 | 78 | 1008.8 |
| 20260504025537 | 83 | 124 | 8.0 | 19.0 | 0.00 | 0.01 | 0.01 | 79 | 1008.8 |
| 20260504025036 | 83 | 121 | 8.0 | 16.0 | 0.00 | 0.01 | 0.01 | 78 | 1008.8 |
| 20260504024535 | 83 | 123 | 9.0 | 17.0 | 0.00 | 0.01 | 0.01 | 79 | 1008.8 |
| 20260504024034 | 83 | 123 | 10.0 | 17.0 | 0.00 | 0.01 | 0.01 | 78 | 1008.8 |
| 20260504023502 | 84 | 107 | 7.0 | 19.0 | 0.00 | 0.01 | 0.01 | 78 | 1008.8 |
| 20260504023000 | 84 | 115 | 7.0 | 19.0 | 0.00 | 0.01 | 0.01 | 77 | 1008.8 |
| 20260504022458 | 84 | 129 | 9.0 | 19.0 | 0.00 | 0.01 | 0.01 | 77 | 1008.8 |
| 20260504021957 | 84 | 145 | 12.0 | 19.0 | 0.00 | 0.01 | 0.01 | 76 | 1008.8 |
| 20260504021425 | 84 | 129 | 9.0 | 18.0 | 0.00 | 0.01 | 0.01 | 76 | 1008.8 |
| 20260504020924 | 84 | 125 | 8.0 | 15.0 | 0.00 | 0.01 | 0.01 | 76 | 1008.8 |
| 20260504020422 | 84 | 124 | 6.0 | 15.0 | 0.00 | 0.01 | 0.01 | 76 | 1008.8 |
| 20260504015921 | 84 | 103 | 5.0 | 16.0 | 0.00 | 0.01 | 0.01 | 77 | 1008.8 |
| 20260504015420 | 83 | 114 | 8.0 | 16.0 | 0.00 | 0.01 | 0.01 | 78 | 1008.8 |
| 20260504014918 | 83 | 106 | 5.0 | 16.0 | 0.00 | 0.01 | 0.01 | 78 | 1008.8 |